[[{"header":{"parameterUnit":"m.s-1","parameterCategory":1,"la1":30.2991,"la2":30.254,"lo1":-89.0895,"lo2":-89.0444,"dy":0.0017,"dx":0.0017,"nx":28,"ny":28,"refTime":"2023-08-18T21:00:00:Z","depth":0,"parameterNumber":2,"parameterNumberName":"U-component_of_WINDS"},"data":[0,0,0,0,0,0,0,0,0,0,0,0,0,0,0,0,0,0,0,0,0,0,0,0,0,0,0,0,0,0,0,0,0,0,0,0,0,0,0,0,0,0,0,0,0,0,0,0,0,0,0,0,0,0,0,0,0,0,-1.0031,-1.003,0,-0.9922,-0.9921,-0.992,-0.9856,-0.9856,-0.9856,-0.9856,-0.9741,-0.9738,-0.9736,0,0,0,0,0,0,0,0,0,0,0,0,0,-1.0183,-1.0181,-1.0031,-1.003,-1.0029,-0.9922,-0.9921,-0.9919,-0.9856,-0.9856,-0.9856,-0.9856,-0.9742,-0.9739,-0.9735,0,0,0,0,0,0,0,0,0,0,0,0,0,-1.01,-1.018,-1.0032,-0.9984,-0.9979,-0.9923,-0.9921,-0.9919,-0.9856,-0.9856,-0.9856,-0.9855,-0.9743,-0.9739,-0.9735,-0.9716,0,0,-0.9722,-0.972,0,0,0,0,0,0,0,0,-1.0105,-1.0095,-0.9993,-0.9988,-0.9982,-0.9903,-0.9932,-0.9851,-0.9857,-0.9903,-0.9856,-0.9855,-0.9795,-0.9786,-0.9767,-0.971,-0.9706,-0.9722,-0.9719,-0.9717,-0.9716,0,0,0,0,0,0,0,-1.0111,-1.0099,-0.9988,-0.9991,-0.9984,-0.9968,-0.9956,-0.9917,-0.9852,-0.9899,-0.9894,-0.9882,-0.9792,-0.9771,-0.9763,-0.9704,-0.9722,-0.9718,-0.9715,-0.9714,-0.9627,-0.9627,0,0,0,0,0,0,-1.0124,-1.0104,-0.9991,-0.9985,-1.0044,-0.9966,-0.9952,-0.9928,-0.9852,-0.9841,-0.9883,-0.988,-0.9778,-0.9769,-0.9759,-0.9732,-0.9717,-0.9713,-0.9711,-0.9627,-0.9627,-0.9627,0,0,0,0,0,0,-1.0128,-1.0115,-0.9996,-1.0043,-1.0027,-0.9964,-0.9937,-0.9926,-0.9905,-0.984,-0.9828,-0.9873,-0.9778,-0.9765,-0.9727,-0.9727,-0.9711,-0.9707,-0.9626,-0.9627,-0.9627,-0.9677,0,0,0,0,0,0,-1.0133,-1.0117,-1.0109,-1.0043,-1.0024,-0.9967,-0.9937,-0.9924,-0.9898,-0.9894,-0.9828,-0.9817,-0.9776,-0.9734,-0.9723,-0.9721,-0.9704,-0.9626,-0.9627,-0.9627,-0.9676,-0.968,-0.9683,0,0,0,0,0,-1.0138,-1.0127,-1.0109,-1.0096,-1.0014,-0.9967,-0.9956,-0.991,-0.9899,-0.989,-0.9849,-0.9819,-0.9729,-0.9731,-0.9718,-0.9714,-0.9626,-0.9626,-0.9627,-0.9674,-0.9679,-0.9683,0,0,0,0,0,0,-1.0193,-1.0117,-1.0097,-1.0064,-1.0023,-0.9956,-0.9944,-0.9917,-0.9877,-0.9874,-0.9818,-0.9804,-0.9771,-0.9739,-0.9742,-0.9692,-0.9674,-0.9672,-0.9714,-0.9718,-0.9722,-0.973,-0.9701,0,0,0,0,0,-1.0202,-1.017,-1.0106,-1.0083,-1.0063,-1.0008,-0.9985,-0.9954,-0.9908,-0.989,-0.9845,-0.9801,-0.9763,-0.9739,-0.97,-0.9671,-0.9656,-0.9662,-0.9666,-0.9669,-0.9668,-0.965,-0.9652,-0.9629,-0.9629,-0.9629,0,0,-1.0218,-1.0173,-1.0157,-1.0093,-1.0057,-1.0025,-0.9993,-0.9961,-0.9936,-0.9885,-0.9846,-0.9813,-0.976,-0.9726,-0.9709,-0.9698,-0.9671,-0.967,-0.9673,-0.967,-0.9651,-0.9653,-0.9655,-0.9629,-0.9629,-0.9629,0,0,-1.0233,-1.0196,-1.0173,-1.0138,-1.0084,-1.0047,-1.0042,-0.998,-0.9956,-0.9917,-0.9878,-0.9848,-0.9783,-0.9747,-0.9721,-0.9723,-0.9694,-0.9712,-0.9731,-0.9714,-0.9716,-0.9717,-0.9718,-0.9719,-0.9711,-0.9711,-0.9711,0,-1.026,-1.0211,-1.0164,-1.0134,-1.0108,-1.0061,-1.0037,-1.0005,-0.9941,-0.9923,-0.9913,-0.9831,-0.9792,-0.975,-0.9751,-0.9731,-0.9723,-0.9719,-0.972,-0.972,-0.9721,-0.9721,-0.9721,-0.9714,-0.9713,-0.9713,-0.9713,0,-1.0248,-1.0214,-1.0202,-1.0143,-1.0115,-1.0088,-1.0037,-1.0014,-0.9985,-0.995,-0.9911,-0.9863,-0.9814,-0.9802,-0.9773,-0.9755,-0.975,-0.973,-0.9711,-0.9726,-0.9725,-0.9725,-0.9717,-0.9716,-0.9716,-0.9715,0,0,-1.0292,-1.0208,-1.0205,-1.0177,-1.0115,-1.0088,-1.006,-1.0013,-0.9994,-0.9952,-0.9926,-0.9874,-0.9855,-0.9825,-0.9792,-0.9777,-0.9782,-0.9759,-0.9757,-0.9765,-0.9759,-0.9774,-0.9775,-0.9763,-0.9763,-0.9763,-0.9764,0,-1.0297,-1.0244,-1.0201,-1.0164,-1.0132,-1.0088,-1.0063,-1.0022,-0.9989,-0.9957,-0.9919,-0.9882,-0.9861,-0.9842,-0.9826,-0.9785,-0.978,-0.9785,-0.9738,-0.9737,-0.9752,-0.9774,-0.9789,-0.9792,-0.9763,-0.9763,-0.9763,0,-1.0295,-1.0256,-1.0216,-1.0158,-1.0143,-1.0121,-1.0075,-1.0045,-0.9998,-0.9974,-0.9942,-0.9908,-0.9875,-0.986,-0.9814,-0.9818,-0.9797,-0.9774,-0.9773,-0.9766,-0.975,-0.9767,-0.9792,-0.9793,-0.9761,-0.9762,-0.9762,0,-1.0332,-1.0269,-1.0236,-1.0214,-1.0146,-1.0132,-1.0102,-1.0055,-1.0029,-0.9989,-0.9972,-0.9928,-0.9904,-0.987,-0.9825,-0.9819,-0.9784,-0.9765,-0.9763,-0.9764,-0.9757,-0.9757,-0.9778,-0.9744,-0.9744,-0.9744,-0.9744,0,-1.0341,-1.0318,-1.0252,-1.0232,-1.0205,-1.0156,-1.0131,-1.0097,-1.0056,-1.0028,-0.9987,-0.9962,-0.9905,-0.9873,-0.9838,-0.9805,-0.9794,-0.9774,-0.9764,-0.9777,-0.9779,-0.9761,-0.976,-0.9744,-0.9744,-0.9744,-0.9744,0,-1.0376,-1.0331,-1.0293,-1.0232,-1.0216,-1.0199,-1.0146,-1.0124,-1.0089,-1.0055,-1.0044,-0.9988,-0.9948,-0.9901,-0.9845,-0.9821,-0.9792,-0.9778,-0.9808,-0.9802,-0.9803,-0.9803,-0.9811,-0.981,-0.9779,-0.9779,-0.9779,0,-1.0385,-1.0367,-1.0304,-1.0283,-1.0255,-1.0222,-1.0196,-1.0147,-1.0122,-1.0068,-1.0053,-1.0011,-0.9974,-0.9912,-0.9866,-0.9824,-0.9808,-0.9814,-0.9802,-0.9815,-0.9808,-0.9809,-0.9807,-0.9817,-0.9818,-0.9818,-0.9819,0,-1.0405,-1.0384,-1.0349,-1.0306,-1.0277,-1.0241,-1.0203,-1.0188,-1.0132,-1.0105,-1.0065,-1.0037,-0.9981,-0.9939,-0.9891,-0.986,-0.983,-0.9824,-0.9821,-0.9833,-0.9851,-0.984,-0.9816,-0.9823,-0.9823,-0.9822,-0.9822,-0.9822,-1.0427,-1.0409,-1.0362,-1.0324,-1.029,-1.0256,-1.0233,-1.0196,-1.0161,-1.0112,-1.0086,-1.0046,-0.9999,-0.9932,-0.9902,-0.987,-0.9859,-0.9855,-0.9854,-0.9853,-0.9857,-0.9857,-0.9861,-0.9861,-0.9861,-0.986,-0.986,0,-1.0445,-1.0413,-1.0379,-1.0327,-1.0297,-1.0273,-1.023,-1.0207,-1.0172,-1.0132,-1.0097,-1.0051,-1.001,-0.9962,-0.9918,-0.9901,-0.9886,-0.9891,-0.9891,-0.9885,-0.9869,-0.9876,-0.9904,-0.9904,-0.9904,-0.9904,-0.9904,-0.9904,-1.045,-1.0418,-1.0391,-1.0342,-1.0309,-1.0271,-1.0248,-1.0216,-1.0183,-1.0134,-1.01,-1.0069,-1.0025,-0.9978,-0.994,-0.9926,-0.9912,-0.9921,-0.9903,-0.989,-0.9886,-0.9882,-0.9888,-0.9918,-0.9918,-0.9921,-0.9921,-0.9921]},{"header":{"parameterUnit":"m.s-1","parameterCategory":1,"la1":30.2991,"la2":30.254,"lo1":-89.0895,"lo2":-89.0444,"dy":0.0017,"dx":0.0017,"nx":28,"ny":28,"refTime":"2023-08-18T21:00:00:Z","depth":0,"parameterNumber":3,"parameterNumberName":"V-component_of_WINDS"},"data":[0,0,0,0,0,0,0,0,0,0,0,0,0,0,0,0,0,0,0,0,0,0,0,0,0,0,0,0,0,0,0,0,0,0,0,0,0,0,0,0,0,0,0,0,0,0,0,0,0,0,0,0,0,0,0,0,0,0,3.7629,3.7629,0,3.7568,3.7568,3.7567,3.75,3.7499,3.7498,3.7497,3.7432,3.7431,3.743,0,0,0,0,0,0,0,0,0,0,0,0,0,3.7685,3.7684,3.7629,3.7628,3.7628,3.7569,3.7568,3.7567,3.75,3.7499,3.7498,3.7497,3.7432,3.7431,3.743,0,0,0,0,0,0,0,0,0,0,0,0,0,3.7646,3.7684,3.7629,3.7587,3.7583,3.7569,3.7568,3.7567,3.7501,3.7499,3.7498,3.7496,3.7433,3.7431,3.743,3.7451,0,0,3.7426,3.7426,0,0,0,0,0,0,0,0,3.7648,3.7644,3.7594,3.759,3.7585,3.754,3.7563,3.7528,3.7501,3.7532,3.7497,3.7496,3.7469,3.7465,3.7456,3.7448,3.7445,3.7426,3.7425,3.7425,3.7425,0,0,0,0,0,0,0,3.7651,3.7646,3.7605,3.7594,3.7588,3.7571,3.7564,3.7556,3.7509,3.7529,3.7524,3.7518,3.7466,3.7458,3.7454,3.7444,3.7426,3.7425,3.7424,3.7424,3.745,3.7452,0,0,0,0,0,0,3.7661,3.7649,3.7607,3.7603,3.7614,3.7571,3.7563,3.7556,3.7509,3.7501,3.7519,3.7515,3.7461,3.7456,3.7452,3.7473,3.7425,3.7424,3.7423,3.7449,3.745,3.7452,0,0,0,0,0,0,3.7662,3.7658,3.7609,3.7625,3.7617,3.7572,3.7565,3.7556,3.7547,3.7502,3.7493,3.7519,3.7459,3.7454,3.7452,3.747,3.7423,3.7422,3.7447,3.7449,3.7451,3.7517,0,0,0,0,0,0,3.7664,3.7658,3.7667,3.7626,3.7617,3.7612,3.7566,3.7556,3.7546,3.754,3.7499,3.7491,3.7458,3.7454,3.7451,3.7468,3.7421,3.7445,3.7448,3.7451,3.7513,3.7521,3.7528,0,0,0,0,0,3.7666,3.7687,3.7667,3.7663,3.7626,3.7613,3.7608,3.757,3.7547,3.7555,3.7526,3.7493,3.7469,3.7455,3.745,3.7467,3.7444,3.7447,3.745,3.751,3.752,3.7528,0,0,0,0,0,0,3.773,3.7681,3.7659,3.7667,3.7645,3.7602,3.761,3.7581,3.7564,3.7559,3.7512,3.7503,3.7507,3.7487,3.7472,3.7485,3.7452,3.7454,3.7498,3.7507,3.7515,3.752,3.742,0,0,0,0,0,3.7746,3.774,3.7696,3.7708,3.7698,3.7656,3.7649,3.7622,3.7596,3.7586,3.7557,3.7533,3.752,3.7512,3.7498,3.751,3.75,3.7519,3.7526,3.7533,3.7536,3.754,3.7548,3.7463,3.7463,3.7463,0,0,3.7777,3.7749,3.7748,3.772,3.77,3.7694,3.7649,3.7645,3.764,3.7585,3.7583,3.756,3.753,3.7536,3.7536,3.7518,3.7557,3.7537,3.7543,3.7542,3.7544,3.7553,3.756,3.7465,3.7465,3.7464,0,0,3.7831,3.781,3.7817,3.7798,3.7768,3.774,3.7742,3.7703,3.7687,3.7683,3.7642,3.7635,3.7614,3.7594,3.7581,3.7629,3.7598,3.7625,3.7665,3.767,3.7676,3.7682,3.7699,3.7706,3.7628,3.7628,3.7628,0,3.7873,3.7864,3.7824,3.7823,3.7811,3.7763,3.777,3.7752,3.7719,3.7712,3.7693,3.7665,3.7642,3.7642,3.7653,3.7645,3.7645,3.7629,3.7679,3.7684,3.7689,3.7704,3.7711,3.7632,3.7631,3.7631,3.763,0,3.7918,3.7912,3.7921,3.7892,3.7881,3.7884,3.7843,3.7838,3.7811,3.7785,3.7782,3.7752,3.7731,3.7728,3.7702,3.7725,3.7715,3.7688,3.7654,3.7701,3.7715,3.7721,3.7637,3.7635,3.7634,3.7633,0,0,3.8011,3.7959,3.7963,3.7949,3.7913,3.7907,3.7907,3.7888,3.7884,3.7862,3.7861,3.7844,3.7819,3.7805,3.7775,3.778,3.7819,3.7752,3.7751,3.7766,3.7843,3.7863,3.7871,3.7799,3.7799,3.78,3.7845,0,3.8059,3.8058,3.8021,3.803,3.8024,3.7977,3.7977,3.7955,3.793,3.7921,3.7893,3.7882,3.785,3.7841,3.7844,3.7814,3.7834,3.781,3.7796,3.7796,3.7806,3.7878,3.79,3.7944,3.785,3.7851,3.7852,0,3.8115,3.8098,3.8106,3.807,3.8066,3.8067,3.8046,3.8037,3.801,3.7992,3.7977,3.7944,3.794,3.7908,3.7903,3.7887,3.7879,3.7864,3.7865,3.7862,3.7827,3.7878,3.7957,3.7964,3.786,3.7859,3.7859,0,3.8182,3.8161,3.8164,3.8153,3.811,3.8112,3.8094,3.8066,3.8056,3.8037,3.8031,3.8011,3.8001,3.7986,3.7949,3.7929,3.7948,3.7912,3.7932,3.7933,3.7938,3.7939,3.8018,3.7933,3.7933,3.7933,3.7933,0,3.824,3.8247,3.8194,3.8195,3.8201,3.8159,3.8166,3.8143,3.8118,3.8114,3.8072,3.8069,3.802,3.801,3.7981,3.7981,3.7976,3.7961,3.7953,3.7965,3.7967,3.7959,3.7955,3.7934,3.7934,3.7934,3.7933,0,3.8317,3.8281,3.8281,3.8241,3.8231,3.8237,3.8202,3.8201,3.8174,3.8169,3.8166,3.8123,3.811,3.8071,3.8048,3.8028,3.8037,3.8022,3.8047,3.8042,3.8064,3.8062,3.8141,3.8149,3.8059,3.806,3.8061,0,3.8356,3.8361,3.8321,3.8316,3.83,3.8292,3.8282,3.824,3.8232,3.8201,3.8204,3.8188,3.8173,3.8154,3.812,3.8102,3.8086,3.8115,3.8083,3.8095,3.8087,3.8088,3.8088,3.8122,3.8124,3.8125,3.8125,0,3.843,3.8412,3.84,3.8383,3.8373,3.8356,3.8337,3.8335,3.8288,3.828,3.8267,3.8256,3.8232,3.8217,3.8193,3.8173,3.8142,3.8136,3.8139,3.8152,3.8166,3.8159,3.8066,3.8134,3.8133,3.8133,3.8132,3.8132,3.8489,3.8491,3.8464,3.8452,3.8434,3.8417,3.8415,3.8388,3.8376,3.8355,3.833,3.832,3.8292,3.8258,3.824,3.8231,3.8214,3.8219,3.822,3.8222,3.8228,3.8168,3.8226,3.8226,3.8226,3.8225,3.8225,0,3.8561,3.8542,3.8531,3.8507,3.8497,3.8469,3.8446,3.844,3.8432,3.8409,3.8395,3.838,3.8365,3.833,3.8311,3.831,3.8295,3.8307,3.8306,3.8302,3.8244,3.8243,3.8319,3.8319,3.8319,3.8319,3.8319,3.8319,3.8598,3.86,3.8579,3.8571,3.855,3.8541,3.853,3.8514,3.8496,3.8481,3.8469,3.8446,3.8419,3.8397,3.8382,3.8372,3.8367,3.8383,3.8369,3.8315,3.8306,3.8298,3.8297,3.8383,3.8383,3.8427,3.8428,3.8428]}]]